Location: Aalen
(48.8330°N, 10.1000°E)
Time: 20:28:21
(UTC+02:00)

S-56A Canister/Altair - Pass Details

Date: 08 August 2021
Orbit: 632 x 2500 km, 38.9° (Epoch: 19 September)

Event Time Altitude Azimuth Distance (km) Brightness Sun altitude
Rises 19:28:08 0° 278° (W) 5,848 14.2 11.4°
Reaches altitude 10° 19:32:14 10° 271° (W) 4,994 14.0 10.8°
Maximum altitude 19:44:43 35° 214° (SSW) 3,501 11.2 8.8°
Drops below altitude 10° 19:56:56 10° 155° (SSE) 4,866 11.2 6.8°
Sets 20:00:54 0° 147° (SSE) 5,683 11.5 6.2°
